USA 81

Last updated on Sat Aug 15 2026 00:02:07 GMT+0000 (Coordinated Universal Time)

1 21949U 92023A 26226.53467977 .00000082 00000+0 23045-4 0 9994 2 21949 85.0051 40.3150 0001216 102.7144 257.4185 14.32411063117385
UTC large
Height (km)
Speed (km/s)
/
Latitude / Longitude
Inclination (degrees)
Orbital Period (minutes)
Azimuth
Elevation
Range (km)
Doppler Factor

Next 0 passes for location: London (51.5072 / 0.1276)

No passes found over London.
USA 81